EW7186 Weather Reports


Display with metric or nautical units.
time (UTC)temp
F
wind
direction
speed
MPH
gust
MPH
rain 1hr
in
rain 24hr
in
rain mn
in
humidity
%
barometer
mb
20260904213104 92 233 0.0 3.0 0.00 0.00 0.00 54 1013.6
20260904211607 93 68 2.0 4.0 0.00 0.00 0.00 54 1013.7
20260904210104 93 70 0.0 4.0 0.00 0.00 0.00 51 1013.6
20260904204603 92 0 0.0 5.0 0.00 0.00 0.00 54 1014.0
20260904203104 92 65 1.0 4.0 0.00 0.00 0.00 52 1014.1
20260904201600 92 0 0.0 4.0 0.00 0.00 0.00 57 1014.4
20260904200113 91 0 1.0 3.0 0.00 0.00 0.00 54 1014.5
20260904194611 91 0 0.0 0.0 0.00 0.00 0.00 60 1014.7
20260904193106 91 0 0.0 3.0 0.00 0.00 0.00 59 1015.0
20260904191603 90 0 1.0 6.0 0.00 0.00 0.00 61 1015.3
20260904190106 90 44 4.0 6.0 0.00 0.00 0.00 64 1015.5
20260904184614 89 48 4.0 6.0 0.00 0.00 0.00 63 1015.8
20260904183104 89 50 3.0 5.0 0.00 0.00 0.00 68 1015.7
20260904181601 88 0 0.0 3.0 0.00 0.00 0.00 64 1016.1
20260904180117 87 46 3.0 4.0 0.00 0.00 0.00 64 1016.1
20260904174623 87 52 3.0 4.0 0.00 0.00 0.00 65 1016.3
20260904173110 87 52 4.0 5.0 0.00 0.00 0.00 64 1016.5
20260904171609 86 59 3.0 4.0 0.00 0.00 0.00 69 1016.5
20260904170106 85 46 3.0 5.0 0.00 0.00 0.00 70 1016.7
20260904164606 84 55 3.0 5.0 0.00 0.00 0.00 74 1016.9
20260904163103 84 61 3.0 4.0 0.00 0.00 0.00 79 1017.1
20260904161606 83 63 4.0 5.0 0.00 0.00 0.00 81 1017.3
20260904160110 83 62 4.0 4.0 0.00 0.00 0.00 81 1017.5
20260904154606 83 63 3.0 4.0 0.00 0.00 0.00 80 1017.6
20260904153129 82 65 2.0 4.0 0.00 0.00 0.00 79 1017.5
20260904151604 82 64 2.0 3.0 0.00 0.00 0.00 81 1017.7
20260904144604 81 98 1.0 3.0 0.00 0.00 0.00 84 1017.5
20260904143102 80 40 2.0 4.0 0.00 0.00 0.00 88 1017.4
20260904141602 80 64 3.0 4.0 0.00 0.00 0.00 89 1017.5
20260904140105 79 0 0.0 4.0 0.00 0.00 0.00 90 1017.5
20260904134610 79 0 0.0 3.0 0.00 0.00 0.00 90 1017.5
20260904133108 79 0 0.0 2.0 0.00 0.00 0.00 90 1017.5
20260904131603 79 0 0.0 2.0 0.00 0.00 0.00 90 1017.5
20260904130112 78 0 0.0 1.0 0.00 0.00 0.00 91 1017.5
20260904124605 78 0 0.0 3.0 0.00 0.00 0.00 91 1017.5
20260904123108 78 0 0.0 0.0 0.00 0.00 0.00 91 1017.5
20260904121604 77 0 0.0 0.0 0.00 0.00 0.00 91 1017.4
20260904120127 76 0 0.0 0.0 0.00 0.00 0.00 91 1017.4
20260904114619 76 0 0.0 0.0 0.00 0.00 0.00 90 1017.3
20260904113106 75 0 0.0 0.0 0.00 0.00 0.00 90 1017.2
20260904111605 75 0 0.0 0.0 0.00 0.00 0.00 90 1017.1
20260904110100 75 0 0.0 0.0 0.00 0.00 0.00 90 1017.0
20260904104556 75 0 0.0 0.0 0.00 0.00 0.00 90 1016.9
20260904103101 75 0 0.0 0.0 0.00 0.00 0.00 90 1016.7
20260904101608 75 0 0.0 0.0 0.00 0.00 0.00 91 1016.6
20260904100100 75 0 0.0 0.0 0.00 0.00 0.00 91 1016.4
20260904094611 75 0 0.0 0.0 0.00 0.00 0.00 91 1016.3
20260904093114 76 0 0.0 0.0 0.00 0.00 0.00 91 1016.4
20260904091601 76 0 0.0 0.0 0.00 0.00 0.00 91 1016.0
20260904090103 76 0 0.0 0.0 0.00 0.00 0.00 91 1015.9
20260904084603 77 0 0.0 0.0 0.00 0.00 0.00 91 1015.6
20260904083104 76 0 0.0 0.0 0.00 0.00 0.00 90 1015.6
20260904081603 77 0 0.0 0.0 0.00 0.00 0.00 90 1015.5
20260904080100 77 0 0.0 0.0 0.00 0.00 0.00 89 1015.6
20260904074556 78 0 0.0 0.0 0.00 0.00 0.00 89 1015.5
20260904073102 78 0 0.0 0.0 0.00 0.00 0.00 89 1015.4
20260904071601 78 0 0.0 0.0 0.00 0.00 0.00 88 1015.7
20260904070100 78 0 0.0 0.0 0.00 0.00 0.00 88 1015.7
20260904064555 79 0 0.0 0.0 0.00 0.00 0.00 87 1015.8
20260904063101 79 0 0.0 0.0 0.00 0.00 0.00 86 1015.8
20260904061606 79 0 0.0 0.0 0.00 0.00 0.00 86 1016.0
20260904060100 79 0 0.0 0.0 0.00 0.00 0.00 85 1016.2
20260904054604 80 0 0.0 0.0 0.00 0.00 0.00 84 1016.4
20260904053139 80 0 0.0 0.0 0.00 0.00 0.00 83 1016.5
20260904051605 80 0 0.0 1.0 0.00 0.00 0.00 82 1016.5
20260904050111 81 0 0.0 0.0 0.00 0.00 0.00 82 1016.7
20260904044601 81 0 0.0 0.0 0.00 0.00 0.00 81 1016.8
20260904043103 81 0 0.0 0.0 0.00 0.00 0.00 80 1016.8
20260904041605 81 0 0.0 0.0 0.00 0.00 0.00 79 1016.9
20260904040104 82 0 0.0 0.0 0.00 0.00 0.00 78 1016.9
20260904034604 82 0 0.0 1.0 0.00 0.00 0.00 77 1017.0
20260904033118 82 0 0.0 0.0 0.00 0.00 0.00 76 1017.1
20260904031603 82 0 0.0 0.0 0.00 0.00 0.00 75 1017.1
20260904030103 83 0 0.0 0.0 0.00 0.00 0.00 74 1017.0
20260904024602 83 0 0.0 0.0 0.00 0.00 0.00 74 1017.1
20260904023101 84 0 0.0 0.0 0.00 0.00 0.00 73 1017.0
20260904021556 84 0 0.0 0.0 0.00 0.00 0.00 72 1017.0
20260904020121 85 0 0.0 0.0 0.00 0.00 0.00 72 1016.7
20260904014650 85 0 0.0 0.0 0.00 0.00 0.00 71 1016.6
20260904013110 86 0 0.0 0.0 0.00 0.00 0.00 70 1016.5
20260904011608 86 0 0.0 0.0 0.00 0.00 0.00 68 1016.3
20260904010104 87 0 0.0 0.0 0.00 0.00 0.00 67 1016.1
20260904004605 87 0 0.0 0.0 0.00 0.00 0.00 66 1015.7
20260904003115 88 0 0.0 0.0 0.00 0.00 0.00 66 1015.4
20260904001602 88 0 0.0 0.0 0.00 0.00 0.00 64 1015.2
20260903234614 90 0 0.0 0.0 0.00 0.00 0.00 62 1014.8
20260903233102 91 0 0.0 0.0 0.00 0.00 0.00 60 1014.7
20260903231604 92 0 0.0 0.0 0.00 0.00 0.00 58 1015.0
20260903230106 92 0 0.0 0.0 0.00 0.00 0.00 56 1015.1
20260903224616 93 0 0.0 0.0 0.00 0.00 0.00 56 1015.1
20260903223107 93 0 0.0 2.0 0.00 0.00 0.00 54 1015.1
20260903221604 93 0 0.0 2.0 0.00 0.00 0.00 53 1014.9
20260903220108 93 0 0.0 3.0 0.00 0.00 0.00 59 1014.9
20260903214602 93 69 2.0 6.0 0.00 0.00 0.00 63 1015.1